�N����,����,�~����,�C��,���x,�C��,����,���ϕ���,�ő�u�ԕ���,�ő厞����,���˗�,�I�_���x,�n�����x,�ő啗���N��,DTYPE
"20/06/12","00:10",0.0,23.3,94.9,999.8,317.0,0.2,0.8,301.7,0.00,22.5,23.3,"00:07:12",1
"20/06/12","00:20",0.0,23.3,94.9,999.6,297.4,0.2,1.1,305.8,0.00,22.5,23.4,"00:14:00",1
"20/06/12","00:30",0.0,23.3,94.9,999.3,328.8,0.7,1.8,17.5,0.00,22.5,23.2,"00:23:20",1
"20/06/12","00:40",0.0,23.3,95.1,999.8,306.4,0.6,1.6,307.2,0.00,22.5,23.2,"00:31:52",1
"20/06/12","00:50",0.0,23.3,95.1,999.8,322.5,0.6,1.2,346.5,0.00,22.5,23.2,"00:40:40",1
"20/06/12","01:00",0.0,23.3,95.1,999.8,309.1,0.5,1.1,355.3,0.00,22.5,23.2,"00:51:12",1
"20/06/12","01:10",0.0,23.3,95.2,1000.0,2.3,0.5,1.4,304.6,0.00,22.5,23.3,"01:06:32",1
"20/06/12","01:20",0.0,23.4,95.2,999.8,66.2,0.5,1.2,126.7,0.00,22.6,23.1,"01:16:08",1
"20/06/12","01:30",0.0,23.3,95.2,999.8,33.3,0.3,1.0,44.6,0.00,22.5,23.3,"01:28:00",1
"20/06/12","01:40",0.0,23.3,95.2,999.8,74.4,0.5,1.0,359.9,0.00,22.5,23.2,"01:31:12",1
"20/06/12","01:50",0.0,23.3,95.2,999.8,70.4,0.5,1.7,45.7,0.00,22.5,23.3,"01:43:36",1
"20/06/12","02:00",0.0,23.2,95.3,999.8,19.2,0.6,1.4,340.7,0.00,22.4,23.1,"01:54:32",1
"20/06/12","02:10",0.0,23.2,95.3,999.8,311.5,0.5,0.9,254.1,0.00,22.4,23.2,"02:03:12",1
"20/06/12","02:20",0.0,23.2,95.4,1000.0,341.3,0.3,1.4,344.8,0.00,22.5,23.1,"02:11:12",1
"20/06/12","02:30",0.0,23.2,95.4,1000.0,54.0,0.3,1.1,356.2,0.00,22.5,23.0,"02:20:32",1
"20/06/12","02:40",0.0,23.2,95.4,1000.0,187.7,0.2,0.9,123.0,0.00,22.5,23.2,"02:30:32",1
"20/06/12","02:50",0.0,23.2,95.4,1000.0,129.1,0.3,0.9,126.5,0.00,22.5,23.4,"02:48:00",1
"20/06/12","03:00",0.0,23.2,95.4,1000.0,89.4,0.5,1.0,72.9,0.00,22.5,23.3,"02:56:40",1
"20/06/12","03:10",0.0,23.1,95.5,1000.5,133.2,0.3,1.1,124.2,0.00,22.4,23.1,"03:00:48",1
"20/06/12","03:20",0.0,23.1,95.5,1000.5,65.2,0.2,0.8,25.9,0.00,22.4,22.9,"03:12:00",1
"20/06/12","03:30",0.0,23.1,95.5,1000.0,66.1,0.3,0.8,64.4,0.00,22.4,23.1,"03:25:28",1
"20/06/12","03:40",0.0,23.1,95.6,1000.3,342.1,0.2,0.9,325.5,0.00,22.4,23.1,"03:37:44",1
"20/06/12","03:50",0.0,23.1,95.6,1000.0,347.3,0.2,0.8,322.9,0.00,22.4,23.1,"03:48:32",1
"20/06/12","04:00",0.0,23.0,95.6,1000.3,336.4,0.5,1.4,337.3,0.00,22.3,23.2,"03:59:12",1
"20/06/12","04:10",0.0,23.0,95.6,1000.5,7.0,0.3,1.1,328.5,0.00,22.3,23.1,"04:00:40",1
"20/06/12","04:20",0.0,23.0,95.7,1000.3,332.2,0.3,0.9,328.3,0.00,22.3,23.1,"04:16:48",1
"20/06/12","04:30",0.0,23.0,95.7,1000.5,357.9,0.2,0.8,347.1,0.00,22.3,22.9,"04:25:52",1
"20/06/12","04:40",0.0,23.0,95.7,1000.3,14.9,0.1,0.5,20.2,0.00,22.3,23.1,"04:30:08",1
"20/06/12","04:50",0.0,23.0,95.7,1000.5,17.2,0.3,1.0,337.4,0.00,22.3,23.0,"04:40:02",1
"20/06/12","05:00",0.0,23.0,95.7,1000.5,321.0,0.7,1.4,307.0,0.00,22.3,23.0,"04:52:24",1
"20/06/12","05:10",0.0,23.0,95.8,1000.5,282.8,0.5,0.8,296.5,0.00,22.3,23.1,"05:01:52",1
"20/06/12","05:20",0.0,23.0,95.8,1000.5,297.2,0.2,0.8,327.5,0.00,22.3,23.1,"05:19:52",1
"20/06/12","05:30",0.0,23.0,95.8,1000.5,326.5,0.5,0.8,302.8,0.00,22.3,23.0,"05:20:02",1
"20/06/12","05:40",0.0,23.1,95.8,1000.8,322.7,0.2,0.8,327.6,0.00,22.4,23.1,"05:30:16",1
"20/06/12","05:50",0.0,23.1,95.8,1001.0,346.4,0.7,1.3,351.7,0.00,22.4,23.1,"05:49:44",1
"20/06/12","06:00",0.0,23.1,95.9,1000.8,330.3,0.8,1.6,335.0,0.00,22.4,23.1,"05:50:40",1
"20/06/12","06:10",0.0,23.1,95.9,1000.8,308.6,0.7,1.0,323.3,0.00,22.4,23.0,"06:07:52",1
"20/06/12","06:20",0.0,23.2,95.9,1000.5,297.5,0.6,1.1,320.6,0.00,22.5,22.9,"06:10:08",1
"20/06/12","06:30",0.0,23.3,95.8,1001.0,311.7,0.2,0.5,303.6,0.00,22.6,23.1,"06:20:08",1
"20/06/12","06:40",0.0,23.3,95.9,1000.8,334.1,0.8,1.3,344.2,0.00,22.6,23.1,"06:38:16",1
"20/06/12","06:50",0.0,23.3,95.9,1001.2,336.8,0.6,1.1,346.1,0.00,22.6,22.9,"06:40:56",1
"20/06/12","07:00",0.0,23.2,95.9,1000.8,334.7,0.7,1.4,326.6,0.00,22.5,23.0,"06:52:32",1
"20/06/12","07:10",0.0,23.3,96.0,1000.8,338.0,0.5,1.0,315.9,0.00,22.7,23.1,"07:04:00",1
"20/06/12","07:20",0.0,23.4,96.0,1000.5,326.7,0.5,1.1,332.0,0.01,22.8,23.1,"07:14:24",1
"20/06/12","07:30",0.0,23.3,95.9,1001.0,226.5,0.5,1.0,240.3,0.01,22.6,23.1,"07:26:24",1
"20/06/12","07:40",0.0,23.4,96.0,1001.2,253.6,0.2,0.8,271.3,0.00,22.8,23.2,"07:30:08",1
"20/06/12","07:50",0.0,23.3,96.0,1001.2,129.1,0.2,0.9,103.0,0.00,22.7,23.0,"07:42:08",1
"20/06/12","08:00",0.0,23.3,96.0,1001.2,158.0,0.2,1.4,142.0,0.00,22.7,23.1,"07:52:16",1
"20/06/12","08:10",0.0,23.3,96.0,1001.5,12.1,0.3,1.1,104.5,0.02,22.7,23.2,"08:03:52",1
"20/06/12","08:20",0.0,23.4,96.0,1001.5,330.7,0.6,1.3,310.7,0.02,22.8,23.2,"08:16:40",1
"20/06/12","08:30",0.0,23.4,96.0,1001.5,332.7,1.2,1.4,341.1,0.02,22.8,23.2,"08:20:24",1
"20/06/12","08:40",0.0,23.4,96.0,1001.2,328.4,1.2,1.9,322.0,0.01,22.8,23.3,"08:35:44",1
"20/06/12","08:50",0.0,23.5,96.0,1001.5,320.7,1.2,1.9,324.4,0.01,22.9,23.3,"08:41:04",1
"20/06/12","09:00",0.0,23.6,96.0,1001.0,319.6,1.3,1.9,336.1,0.02,23.0,23.1,"08:55:44",1
"20/06/12","09:10",0.0,23.6,96.0,1001.5,320.2,1.3,1.8,335.2,0.03,23.0,23.2,"09:01:04",1
"20/06/12","09:20",0.0,23.7,96.0,1001.5,322.5,1.3,2.1,323.7,0.06,23.1,23.3,"09:11:28",1
"20/06/12","09:30",0.0,23.7,96.0,1001.2,320.4,1.6,2.4,331.1,0.04,23.1,23.3,"09:29:20",1
"20/06/12","09:40",0.0,23.7,96.0,1001.5,317.1,1.6,2.8,325.8,0.03,23.1,23.3,"09:30:08",1
"20/06/12","09:50",0.0,23.9,96.0,1001.5,286.8,0.8,1.2,297.2,0.05,23.3,23.5,"09:40:08",1
"20/06/12","10:00",0.0,24.0,96.0,1001.5,304.7,1.2,2.0,320.5,0.08,23.4,23.4,"09:57:44",1
"20/06/12","10:10",0.0,24.4,95.9,1001.2,316.1,0.8,1.4,332.0,0.11,23.7,23.4,"10:00:08",1
"20/06/12","10:20",0.0,24.5,95.9,1001.5,323.2,0.2,1.0,336.2,0.09,23.8,23.7,"10:14:24",1
"20/06/12","10:30",0.0,24.9,96.0,1001.2,333.2,0.6,1.9,330.3,0.16,24.3,23.8,"10:27:04",1
"20/06/12","10:40",0.0,25.1,95.7,1001.2,330.8,0.6,1.4,334.3,0.15,24.4,23.8,"10:37:28",1
"20/06/12","10:50",0.0,25.0,95.7,1001.2,342.0,0.7,1.6,305.2,0.18,24.3,24.0,"10:40:56",1
"20/06/12","11:00",0.0,25.5,95.4,1001.0,305.8,0.6,1.6,341.7,0.21,24.7,24.3,"10:58:24",1
"20/06/12","11:10",0.0,25.6,95.0,1001.2,349.4,0.6,1.3,348.9,0.19,24.8,24.3,"11:00:16",1
"20/06/12","11:20",0.0,25.3,94.8,1000.8,335.4,1.0,1.7,333.0,0.13,24.4,24.5,"11:16:32",1
"20/06/12","11:30",0.0,25.2,94.0,1000.8,209.2,0.7,1.4,235.8,0.11,24.2,24.4,"11:23:28",1
"20/06/12","11:40",0.0,25.2,94.2,1000.5,211.4,1.1,2.7,207.3,0.12,24.2,24.3,"11:36:48",1
"20/06/12","11:50",0.0,25.3,93.8,1000.3,227.3,1.1,2.0,219.1,0.10,24.3,24.7,"11:40:24",1
"20/06/12","12:00",0.0,25.2,93.6,1000.5,217.4,1.1,2.0,168.1,0.06,24.1,24.8,"11:50:56",1
"20/06/12","12:10",0.0,25.4,93.3,999.8,208.8,0.8,1.7,238.6,0.12,24.3,24.7,"12:00:16",1
"20/06/12","12:20",0.0,25.5,93.2,1000.0,237.4,0.7,1.3,195.3,0.07,24.4,24.8,"12:10:16",1
"20/06/12","12:30",0.0,25.7,92.7,1000.0,337.9,1.0,1.7,345.5,0.11,24.5,24.9,"12:25:20",1
"20/06/12","12:40",0.0,25.9,92.2,999.8,352.8,0.8,1.7,335.3,0.16,24.6,24.6,"12:33:28",1
"20/06/12","12:50",0.0,26.1,91.6,999.6,356.5,0.6,1.4,355.7,0.15,24.7,25.0,"12:40:24",1
"20/06/12","13:00",0.0,26.4,90.8,999.3,1.9,0.5,1.1,32.0,0.16,24.8,25.0,"12:51:52",1
"20/06/12","13:10",0.0,26.5,89.2,999.1,142.4,0.5,1.4,189.8,0.13,24.6,25.1,"13:09:52",1
"20/06/12","13:20",0.0,26.6,88.9,999.1,185.1,1.0,2.1,201.1,0.12,24.7,25.0,"13:13:52",1
"20/06/12","13:30",0.0,26.9,87.7,998.9,174.5,0.6,1.7,177.2,0.17,24.7,25.0,"13:20:32",1
"20/06/12","13:40",0.0,27.2,86.3,999.1,266.3,0.2,1.4,205.9,0.13,24.8,25.3,"13:31:28",1
"20/06/12","13:50",0.0,27.4,84.8,998.9,1.9,0.2,1.2,354.2,0.16,24.7,25.3,"13:48:56",1
"20/06/12","14:00",0.0,27.7,83.1,999.3,1.6,0.6,1.4,7.8,0.16,24.6,25.4,"13:53:04",1
"20/06/12","14:10",0.0,28.0,81.8,998.9,95.2,0.5,1.1,43.6,0.21,24.6,25.4,"14:00:40",1
"20/06/12","14:20",0.0,28.2,80.9,999.3,177.6,0.3,1.2,189.7,0.16,24.6,25.5,"14:11:44",1
"20/06/12","14:30",0.0,28.2,79.8,999.3,216.8,0.5,1.4,208.4,0.12,24.4,25.7,"14:25:36",1
"20/06/12","14:40",0.0,28.0,78.8,999.3,294.3,0.5,1.2,8.2,0.12,24.0,25.7,"14:35:04",1
"20/06/12","14:50",0.0,27.8,78.6,999.1,282.0,0.3,1.7,309.1,0.08,23.8,25.8,"14:40:16",1
"20/06/12","15:00",0.0,27.7,79.1,998.4,352.7,0.8,1.8,347.3,0.07,23.8,25.8,"14:57:36",1
"20/06/12","15:10",0.0,27.4,79.9,998.4,314.5,0.6,1.7,347.9,0.03,23.7,25.8,"15:04:00",1
"20/06/12","15:20",0.0,27.1,81.2,998.2,342.0,1.2,2.2,346.8,0.01,23.6,25.6,"15:12:48",1
"20/06/12","15:30",0.0,26.8,82.2,998.2,316.7,0.7,1.2,303.6,0.02,23.5,25.7,"15:26:40",1
"20/06/12","15:40",0.0,26.7,83.1,998.6,332.3,0.6,1.2,350.7,0.02,23.6,25.6,"15:30:08",1
"20/06/12","15:50",0.0,26.5,84.1,998.6,348.3,0.6,1.1,359.4,0.02,23.6,25.6,"15:41:36",1
"20/06/12","16:00",0.0,26.6,85.0,998.9,345.5,0.5,0.9,0.9,0.02,23.9,25.5,"15:51:04",1
"20/06/12","16:10",0.0,26.5,85.7,998.6,331.4,0.3,0.9,7.5,0.03,23.9,25.2,"16:00:24",1
"20/06/12","16:20",0.0,26.4,86.2,999.3,323.8,0.7,1.9,343.5,0.04,23.9,25.6,"16:16:16",1
"20/06/12","16:30",0.0,26.3,86.6,999.1,342.7,1.0,2.0,352.6,0.02,23.9,25.2,"16:27:04",1
"20/06/12","16:40",0.0,26.4,87.0,999.3,336.0,0.7,1.4,352.7,0.03,24.1,25.1,"16:30:16",1
"20/06/12","16:50",0.0,26.4,87.2,999.3,314.8,0.3,0.9,337.3,0.01,24.1,25.3,"16:40:40",1
"20/06/12","17:00",0.0,26.3,87.4,999.3,302.0,0.1,0.6,326.0,0.00,24.1,25.3,"16:50:56",1
"20/06/12","17:10",0.0,26.0,87.7,999.3,342.2,1.0,1.6,342.9,0.00,23.8,25.4,"17:05:12",1
"20/06/12","17:20",0.0,25.4,87.9,999.3,345.4,1.0,2.1,338.4,0.00,23.3,25.2,"17:12:00",1
"20/06/12","17:30",0.0,25.2,88.0,999.1,337.2,1.1,2.6,348.3,0.00,23.1,25.2,"17:28:08",1
"20/06/12","17:40",0.0,25.0,88.0,999.6,326.4,1.6,4.7,311.3,0.00,22.9,25.0,"17:30:02",1
"20/06/12","17:50",0.0,24.4,88.6,1000.0,343.1,2.5,4.7,333.7,0.00,22.4,25.0,"17:42:32",1
"20/06/12","18:00",0.0,24.2,89.1,999.6,342.9,1.2,3.5,327.6,0.00,22.3,24.7,"17:51:36",1
"20/06/12","18:10",0.0,24.0,89.6,1000.0,271.0,1.2,2.7,236.0,0.00,22.2,24.6,"18:08:16",1
"20/06/12","18:20",0.0,23.9,90.1,1000.0,313.0,1.2,2.5,309.0,0.00,22.2,24.6,"18:19:12",1
"20/06/12","18:30",0.0,23.8,90.5,1000.5,277.7,0.8,2.2,306.2,0.00,22.2,24.6,"18:20:24",1
"20/06/12","18:40",0.0,23.7,90.9,1000.3,331.2,1.1,1.9,333.0,0.00,22.2,24.6,"18:35:36",1
"20/06/12","18:50",0.0,23.6,91.2,1000.3,337.1,0.7,2.0,340.8,0.00,22.1,24.2,"18:46:08",1
"20/06/12","19:00",0.0,23.5,91.4,1000.5,289.2,0.5,0.9,301.6,0.00,22.1,24.3,"18:51:12",1
"20/06/12","19:10",0.0,23.5,91.7,1000.8,283.9,0.6,1.1,326.5,0.00,22.1,24.3,"19:08:24",1
"20/06/12","19:20",0.0,23.5,91.9,1000.8,329.3,0.8,2.0,337.5,0.00,22.1,24.3,"19:10:40",1
"20/06/12","19:30",0.0,23.5,92.1,1001.2,335.7,0.3,1.0,343.5,0.00,22.2,24.0,"19:23:20",1
"20/06/12","19:40",0.0,23.3,92.3,1001.2,314.6,1.2,3.4,314.2,0.00,22.0,24.0,"19:35:36",1
"20/06/12","19:50",0.0,23.3,92.6,1001.2,322.9,1.1,2.5,332.5,0.00,22.1,24.0,"19:42:48",1
"20/06/12","20:00",0.0,23.3,92.8,1001.7,334.7,1.1,1.9,329.2,0.00,22.1,24.0,"19:51:12",1
"20/06/12","20:10",0.0,23.3,92.9,1001.7,331.4,1.1,1.8,336.2,0.00,22.1,24.1,"20:07:28",1
"20/06/12","20:20",0.0,23.3,93.0,1001.7,327.3,1.0,2.1,333.1,0.00,22.1,23.8,"20:19:04",1
"20/06/12","20:30",0.0,23.2,93.2,1001.7,324.6,0.8,1.8,341.4,0.00,22.1,24.0,"20:28:00",1
"20/06/12","20:40",0.0,23.2,93.3,1001.9,330.5,1.1,1.7,329.1,0.00,22.1,24.0,"20:32:56",1
"20/06/12","20:50",0.0,23.1,93.5,1001.9,331.6,1.2,2.4,340.2,0.00,22.0,23.9,"20:44:56",1
"20/06/12","21:00",0.0,23.0,93.6,1001.5,336.1,1.2,3.1,331.1,0.00,22.0,23.8,"20:50:48",1
"20/06/12","21:10",0.0,23.0,93.7,1001.9,308.9,1.2,1.8,326.6,0.00,22.0,24.0,"21:09:04",1
"20/06/12","21:20",0.0,23.0,93.8,1001.9,318.3,1.3,2.2,336.3,0.00,22.0,23.7,"21:16:24",1
"20/06/12","21:30",0.0,23.0,93.9,1001.5,344.1,1.0,1.9,331.7,0.00,22.0,23.8,"21:28:48",1
"20/06/12","21:40",0.0,23.0,94.0,1002.2,322.6,1.2,2.2,328.5,0.00,22.0,23.5,"21:37:12",1
"20/06/12","21:50",0.0,23.0,94.2,1002.4,347.0,1.2,1.8,333.7,0.00,22.1,23.7,"21:46:00",1
"20/06/12","22:00",0.0,22.9,94.2,1002.2,329.6,1.2,2.1,303.7,0.00,22.0,23.5,"21:59:12",1
"20/06/12","22:10",0.0,22.9,94.3,1002.2,291.1,1.0,1.8,322.1,0.00,22.0,23.6,"22:09:36",1
"20/06/12","22:20",0.0,22.9,94.4,1002.4,263.3,0.8,1.4,239.4,0.00,22.0,23.7,"22:19:04",1
"20/06/12","22:30",0.0,22.9,94.4,1002.2,305.4,0.8,1.6,356.8,0.00,22.0,23.5,"22:27:12",1
"20/06/12","22:40",0.0,22.8,94.5,1002.2,290.4,0.7,1.2,317.4,0.00,21.9,23.6,"22:33:28",1
"20/06/12","22:50",0.0,22.8,94.6,1001.9,261.9,0.8,1.8,314.9,0.00,21.9,23.4,"22:40:02",1
"20/06/12","23:00",0.0,22.7,94.7,1002.2,324.6,1.5,2.1,329.2,0.00,21.8,23.4,"22:55:04",1
"20/06/12","23:10",0.0,22.7,94.7,1002.2,333.6,1.0,1.7,330.5,0.00,21.8,23.6,"23:04:32",1
"20/06/12","23:20",0.0,22.7,94.8,1001.9,334.4,0.6,1.4,349.8,0.00,21.9,23.5,"23:12:08",1
"20/06/12","23:30",0.0,22.6,94.8,1002.2,315.1,1.3,1.8,328.9,0.00,21.8,23.5,"23:26:16",1
"20/06/12","23:40",0.0,22.4,94.9,1002.2,302.9,1.0,1.7,330.6,0.00,21.6,23.5,"23:30:08",1
"20/06/12","23:50",0.0,22.4,95.0,1002.4,284.2,0.8,1.6,314.5,0.00,21.6,23.3,"23:40:48",1
"20/06/12","24:00",0.0,22.3,95.1,1001.9,267.5,0.8,1.2,277.2,0.00,21.5,23.3,"23:54:00",1
